Total_Precipitation_Accumulation
0.00 0.00 0.00 0.00 0.00 0.01 0.01 0.01 0.02 0.02 0.01 0.00 0.00 0.00 0.00 0.00 0.00 0.00 0.00 0.01 0.02 0.02 0.02 0.02 0.02 0.02 0.03 0.04 0.04 0.05 0.05 0.05 0.05 0.07 0.10 0.17 0.23 0.27
0.01 0.01 0.02 0.01 0.02 0.02 0.02 0.03 0.03 0.04 0.03 0.01 0.00 0.00 0.00 0.00 0.00 0.01 0.01 0.02 0.02 0.03 0.03 0.04 0.04 0.03 0.03 0.04 0.05 0.06 0.06 0.06 0.06 0.07 0.08 0.09 0.14 0.21
0.02 0.03 0.03 0.04 0.04 0.04 0.04 0.04 0.03 0.03 0.04 0.02 0.01 0.01 0.02 0.03 0.03 0.04 0.04 0.06 0.06 0.07 0.08 0.08 0.07 0.07 0.07 0.08 0.09 0.10 0.10 0.10 0.10 0.10 0.10 0.10 0.11 0.13
0.03 0.04 0.04 0.04 0.05 0.05 0.04 0.04 0.04 0.05 0.06 0.05 0.03 0.02 0.03 0.04 0.06 0.08 0.06 0.05 0.07 0.07 0.10 0.10 0.10 0.11 0.10 0.10 0.09 0.09 0.09 0.09 0.09 0.10 0.12 0.13 0.14 0.14
0.02 0.02 0.02 0.02 0.03 0.04 0.04 0.04 0.04 0.04 0.07 0.09 0.07 0.06 0.05 0.06 0.11 0.11 0.10 0.12 0.10 0.11 0.10 0.10 0.09 0.08 0.07 0.06 0.06 0.06 0.05 0.05 0.05 0.06 0.07 0.09 0.11 0.12
0.01 0.01 0.01 0.02 0.04 0.05 0.05 0.05 0.06 0.08 0.10 0.13 0.13 0.10 0.08 0.07 0.13 0.14 0.12 0.12 0.12 0.09 0.09 0.08 0.07 0.05 0.04 0.04 0.04 0.04 0.04 0.03 0.04 0.04 0.04 0.04 0.05 0.05
0.01 0.01 0.01 0.02 0.04 0.05 0.05 0.07 0.11 0.15 0.16 0.18 0.16 0.12 0.09 0.10 0.13 0.15 0.14 0.10 0.06 0.06 0.10 0.10 0.11 0.10 0.09 0.09 0.07 0.06 0.04 0.03 0.02 0.02 0.03 0.03 0.03 0.03
0.01 0.02 0.02 0.02 0.02 0.02 0.05 0.10 0.16 0.19 0.19 0.20 0.18 0.17 0.12 0.13 0.15 0.16 0.17 0.17 0.14 0.10 0.14 0.11 0.12 0.12 0.12 0.15 0.15 0.09 0.05 0.04 0.03 0.02 0.01 0.01 0.02 0.03
0.03 0.03 0.02 0.01 0.02 0.04 0.05 0.07 0.07 0.08 0.14 0.22 0.23 0.20 0.18 0.18 0.23 0.23 0.24 0.25 0.20 0.15 0.22 0.18 0.12 0.13 0.13 0.14 0.14 0.10 0.08 0.06 0.04 0.03 0.01 0.01 0.01 0.01
0.03 0.03 0.03 0.03 0.04 0.05 0.04 0.03 0.03 0.05 0.08 0.12 0.19 0.19 0.19 0.21 0.25 0.27 0.28 0.28 0.21 0.18 0.28 0.28 0.14 0.13 0.12 0.17 0.20 0.14 0.11 0.09 0.08 0.05 0.03 0.02 0.02 0.02
0.02 0.02 0.03 0.05 0.06 0.07 0.05 0.05 0.05 0.05 0.05 0.08 0.14 0.21 0.23 0.26 0.27 0.30 0.36 0.40 0.30 0.17 0.25 0.33 0.22 0.17 0.15 0.19 0.21 0.18 0.14 0.12 0.09 0.06 0.06 0.05 0.05 0.04
0.01 0.02 0.03 0.06 0.05 0.05 0.04 0.07 0.11 0.09 0.10 0.15 0.22 0.28 0.31 0.39 0.40 0.38 0.43 0.43 0.36 0.31 0.28 0.33 0.29 0.25 0.22 0.17 0.18 0.19 0.17 0.16 0.13 0.10 0.08 0.07 0.09 0.08
0.02 0.03 0.06 0.07 0.05 0.04 0.06 0.10 0.14 0.14 0.19 0.27 0.28 0.28 0.29 0.33 0.34 0.32 0.34 0.37 0.41 0.44 0.37 0.36 0.34 0.31 0.30 0.20 0.14 0.16 0.17 0.20 0.21 0.21 0.20 0.17 0.13 0.10
0.04 0.06 0.08 0.08 0.06 0.09 0.10 0.13 0.15 0.21 0.28 0.31 0.30 0.28 0.26 0.26 0.27 0.26 0.26 0.29 0.34 0.39 0.35 0.34 0.37 0.33 0.27 0.18 0.16 0.16 0.20 0.28 0.36 0.41 0.37 0.33 0.22 0.16
0.05 0.08 0.10 0.11 0.13 0.17 0.19 0.20 0.24 0.29 0.31 0.31 0.30 0.29 0.25 0.21 0.19 0.18 0.21 0.26 0.32 0.32 0.28 0.25 0.28 0.27 0.24 0.22 0.23 0.23 0.23 0.28 0.37 0.46 0.48 0.43 0.32 0.21
0.04 0.08 0.15 0.21 0.24 0.27 0.30 0.33 0.33 0.32 0.29 0.28 0.27 0.23 0.18 0.14 0.13 0.15 0.20 0.23 0.27 0.28 0.23 0.21 0.21 0.23 0.26 0.24 0.25 0.27 0.25 0.33 0.40 0.46 0.51 0.53 0.46 0.31
0.02 0.06 0.12 0.17 0.21 0.23 0.26 0.29 0.31 0.29 0.25 0.23 0.21 0.19 0.15 0.13 0.13 0.14 0.17 0.18 0.21 0.25 0.23 0.21 0.20 0.19 0.19 0.20 0.25 0.26 0.25 0.32 0.44 0.50 0.52 0.62 0.65 0.49
0.03 0.07 0.12 0.17 0.21 0.22 0.23 0.26 0.28 0.27 0.24 0.21 0.20 0.18 0.16 0.16 0.18 0.18 0.17 0.18 0.22 0.23 0.21 0.19 0.16 0.13 0.11 0.16 0.29 0.33 0.31 0.42 0.51 0.48 0.43 0.54 0.74 0.69
0.06 0.10 0.14 0.19 0.23 0.21 0.21 0.25 0.28 0.27 0.24 0.21 0.19 0.17 0.17 0.16 0.15 0.16 0.16 0.16 0.16 0.15 0.14 0.13 0.13 0.12 0.12 0.19 0.33 0.53 0.51 0.48 0.46 0.43 0.42 0.49 0.70 0.76
0.11 0.14 0.16 0.19 0.23 0.24 0.22 0.22 0.22 0.21 0.19 0.18 0.18 0.16 0.15 0.14 0.13 0.12 0.11 0.10 0.11 0.10 0.10 0.11 0.13 0.14 0.15 0.21 0.45 0.64 0.66 0.48 0.39 0.45 0.53 0.54 0.67 0.71
0.13 0.16 0.18 0.19 0.21 0.23 0.22 0.20 0.17 0.16 0.14 0.13 0.15 0.15 0.15 0.13 0.10 0.09 0.08 0.07 0.08 0.08 0.09 0.12 0.16 0.16 0.11 0.09 0.26 0.49 0.60 0.70 0.61 0.58 0.61 0.55 0.45 0.35
0.15 0.17 0.17 0.17 0.19 0.18 0.15 0.14 0.14 0.12 0.11 0.11 0.11 0.11 0.10 0.10 0.08 0.07 0.06 0.05 0.05 0.05 0.06 0.08 0.10 0.09 0.08 0.10 0.22 0.39 0.45 0.45 0.48 0.54 0.57 0.42 0.26 0.25
0.17 0.18 0.16 0.15 0.15 0.14 0.12 0.09 0.08 0.08 0.09 0.10 0.10 0.08 0.07 0.05 0.04 0.03 0.02 0.02 0.02 0.02 0.02 0.03 0.03 0.03 0.04 0.05 0.09 0.16 0.18 0.15 0.11 0.15 0.32 0.41 0.36 0.38